TimeMST,TemperatureF,Dew PointF,Humidity,Sea Level PressureIn,VisibilityMPH,Wind Direction,Wind SpeedMPH,Gust SpeedMPH,PrecipitationIn,Events,Conditions,WindDirDegrees,DateUTC
12:53 AM,-8.0,-11.9,83,30.23,10.0,NNE,4.6,-,N/A,,Overcast,30,2013-12-09 07:53:00
1:53 AM,-8.0,-13.0,79,30.25,10.0,NW,8.1,-,N/A,,Partly Cloudy,310,2013-12-09 08:53:00
2:53 AM,-9.9,-16.1,74,30.29,10.0,NNE,9.2,-,N/A,,Clear,20,2013-12-09 09:53:00
3:53 AM,-18.9,-24.0,78,30.36,10.0,NNE,5.8,-,N/A,,Clear,20,2013-12-09 10:53:00
4:53 AM,-14.1,-17.0,87,30.38,10.0,NNW,9.2,-,N/A,,Clear,330,2013-12-09 11:53:00
5:53 AM,-9.0,-13.0,83,30.48,10.0,NW,8.1,-,N/A,,Clear,310,2013-12-09 12:53:00
6:53 AM,-9.9,-14.1,82,30.52,10.0,WNW,15.0,-,N/A,,Clear,290,2013-12-09 13:53:00
7:53 AM,-8.0,-11.9,83,30.57,10.0,NW,12.7,-,N/A,,Clear,310,2013-12-09 14:53:00
8:53 AM,-4.0,-11.0,72,30.61,10.0,North,15.0,-,N/A,,Clear,350,2013-12-09 15:53:00
9:53 AM,1.0,-6.0,72,30.58,10.0,North,19.6,-,N/A,,Clear,360,2013-12-09 16:53:00
10:53 AM,3.9,-5.1,66,30.60,10.0,North,13.8,-,N/A,,Clear,350,2013-12-09 17:53:00
11:53 AM,7.0,-2.9,64,30.60,10.0,North,10.4,-,N/A,,Clear,350,2013-12-09 18:53:00
12:53 PM,9.0,-2.0,61,30.49,10.0,North,10.4,-,N/A,,Clear,360,2013-12-09 19:53:00
1:53 PM,12.0,-0.9,56,30.48,10.0,NW,8.1,-,N/A,,Clear,310,2013-12-09 20:53:00
2:53 PM,12.0,-2.9,51,30.51,10.0,North,3.5,-,N/A,,Clear,10,2013-12-09 21:53:00
3:53 PM,10.0,-2.0,58,30.60,10.0,WNW,12.7,-,N/A,,Clear,290,2013-12-09 22:53:00
4:53 PM,6.1,-4.0,63,30.61,10.0,West,6.9,-,N/A,,Clear,270,2013-12-09 23:53:00
5:53 PM,1.0,-8.0,66,30.63,10.0,WNW,6.9,-,N/A,,Clear,300,2013-12-10 00:53:00
6:53 PM,-0.9,-8.0,72,30.63,10.0,North,8.1,-,N/A,,Clear,360,2013-12-10 01:53:00
7:53 PM,-5.1,-11.0,76,30.67,10.0,North,4.6,-,N/A,,Clear,350,2013-12-10 02:53:00
8:53 PM,-9.0,-15.0,75,30.68,10.0,West,4.6,-,N/A,,Clear,260,2013-12-10 03:53:00
9:53 PM,-11.9,-17.0,78,30.69,10.0,West,5.8,-,N/A,,Clear,280,2013-12-10 04:53:00
10:53 PM,-11.9,-17.0,78,30.68,10.0,West,8.1,-,N/A,,Clear,270,2013-12-10 05:53:00
11:53 PM,-9.0,-15.0,75,30.65,10.0,West,11.5,-,N/A,,Clear,280,2013-12-10 06:53:00